KB6LA Weather Reports


time (UTC)temp
C
wind
direction
speed
KPH
gust
KPH
rain 1hr
cm
rain 24hr
cm
rain mn
cm
humidity
%
barometer
mb
20260903121311 19 354 3.2 9.7 0.00 0.00 0.00 82 1012.8
20260903120804 19 25 3.2 6.4 0.00 0.00 0.00 82 1012.4
20260903120258 19 54 3.2 4.8 0.00 0.00 0.00 82 1012.4
20260903115751 19 19 3.2 4.8 0.00 0.00 0.00 81 1012.8
20260903115245 18 357 3.2 6.4 0.00 0.00 0.00 81 1012.8
20260903114738 18 356 3.2 6.4 0.00 0.00 0.00 81 1012.8
20260903114231 18 44 3.2 6.4 0.00 0.00 0.00 81 1012.8
20260903113725 18 32 4.8 4.8 0.00 0.00 0.00 81 1012.8
20260903112713 18 27 3.2 6.4 0.00 0.00 0.00 80 1012.8
20260903112206 18 10 3.2 6.4 0.00 0.00 0.00 81 1012.8
20260903111659 18 9 3.2 6.4 0.00 0.00 0.00 81 1012.8
20260903111153 18 42 1.6 6.4 0.00 0.00 0.00 81 1012.8
20260903110647 18 19 3.2 9.7 0.00 0.00 0.00 81 1012.8
20260903110141 18 10 3.2 9.7 0.00 0.00 0.00 81 1012.8
20260903105634 18 12 3.2 6.4 0.00 0.00 0.00 81 1012.8
20260903104621 18 329 1.6 4.8 0.00 0.00 0.00 82 1012.8
20260903103607 18 71 4.8 6.4 0.00 0.00 0.00 81 1012.8
20260903103101 18 35 3.2 6.4 0.00 0.00 0.00 81 1012.8
20260903102554 18 3 3.2 9.7 0.00 0.00 0.00 80 1012.8
20260903102048 18 42 3.2 9.7 0.00 0.00 0.00 80 1012.8
20260903101543 18 19 4.8 6.4 0.00 0.00 0.00 80 1013.1
20260903101035 18 20 3.2 6.4 0.00 0.00 0.00 80 1012.8
20260903100528 18 10 3.2 6.4 0.00 0.00 0.00 79 1012.8
20260903100022 18 349 3.2 6.4 0.00 0.00 0.00 79 1013.1
20260903095516 18 356 3.2 6.4 0.00 0.00 0.00 79 1012.8
20260903094502 18 29 4.8 6.4 0.00 0.00 0.00 78 1013.1
20260903093956 18 42 4.8 6.4 0.00 0.00 0.00 78 1013.1
20260903093450 18 30 6.4 6.4 0.00 0.00 0.00 78 1012.8
20260903092436 18 19 4.8 6.4 0.00 0.00 0.00 77 1013.1
20260903091930 18 18 4.8 6.4 0.00 0.00 0.00 77 1013.4
20260903091424 18 22 4.8 6.4 0.00 0.00 0.00 77 1013.1
20260903090919 18 30 4.8 6.4 0.00 0.00 0.00 76 1013.4
20260903090411 18 14 4.8 4.8 0.00 0.00 0.00 76 1013.4
20260903085904 18 359 3.2 6.4 0.00 0.00 0.00 76 1013.1
20260903085357 18 339 1.6 6.4 0.00 0.00 0.00 76 1013.4
20260903084851 18 339 1.6 4.8 0.00 0.00 0.00 75 1013.4
20260903084345 18 0 1.6 4.8 0.00 0.00 0.00 75 1013.4
20260903083839 18 6 3.2 4.8 0.00 0.00 0.00 75 1013.4
20260903083332 18 343 1.6 4.8 0.00 0.00 0.00 74 1013.4
20260903082825 19 353 1.6 4.8 0.00 0.00 0.00 74 1013.4
20260903082319 19 339 3.2 6.4 0.00 0.00 0.00 74 1013.4
20260903081813 19 4 4.8 6.4 0.00 0.00 0.00 73 1013.4
20260903080800 18 17 3.2 6.4 0.00 0.00 0.00 73 1013.4
20260903080253 18 6 1.6 3.2 0.00 0.00 0.00 72 1013.4
20260903075746 18 334 1.6 3.2 0.00 0.00 0.00 71 1013.4
20260903075240 18 328 1.6 4.8 0.00 0.00 0.00 71 1013.8
20260903074734 19 331 1.6 4.8 0.00 0.00 0.00 71 1013.4
20260903073721 18 1 1.6 4.8 0.00 0.00 0.00 71 1013.4
20260903073214 18 336 0.0 4.8 0.00 0.00 0.00 71 1013.8
20260903072708 18 13 1.6 4.8 0.00 0.00 0.00 71 1013.4
20260903072202 18 339 1.6 3.2 0.00 0.00 0.00 71 1013.4
20260903071654 18 336 3.2 3.2 0.00 0.00 0.00 71 1013.4
20260903070642 18 323 1.6 1.6 0.00 0.00 0.00 69 1013.4
20260903070135 19 323 0.0 3.2 0.00 0.00 0.00 69 1013.4
20260903065628 19 310 0.0 3.2 0.00 0.00 0.00 68 1013.8
20260903065122 19 332 0.0 3.2 0.00 0.00 0.00 68 1013.4
20260903064616 19 339 1.6 3.2 0.00 0.00 0.00 68 1013.4
20260903064109 19 337 1.6 3.2 0.00 0.00 0.00 68 1013.4
20260903063603 19 333 1.6 3.2 0.00 0.00 0.00 68 1013.4
20260903063056 19 348 1.6 3.2 0.00 0.00 0.00 68 1013.4
20260903062550 19 321 1.6 1.6 0.00 0.00 0.00 68 1013.4
20260903062043 19 340 1.6 1.6 0.00 0.00 0.00 68 1013.4
20260903061537 20 326 1.6 4.8 0.00 0.00 0.00 68 1013.4
20260903061030 20 355 1.6 4.8 0.00 0.00 0.00 67 1013.4
20260903060524 20 6 3.2 4.8 0.00 0.00 0.00 67 1013.4
20260903060017 20 25 3.2 3.2 0.00 0.00 0.00 68 1013.4
20260903055511 20 354 1.6 3.2 0.00 0.00 0.00 70 1013.4
20260903053951 20 335 0.0 0.0 0.00 0.00 0.00 70 1013.1
20260903053446 20 335 0.0 1.6 0.00 0.00 0.00 70 1013.4
20260903052938 20 335 0.0 1.6 0.00 0.00 0.00 70 1013.4
20260903052432 20 334 1.6 1.6 0.00 0.00 0.00 70 1013.1
20260903051926 20 313 0.0 1.6 0.00 0.00 0.00 70 1013.4
20260903050912 20 310 1.6 3.2 0.00 0.00 0.00 69 1013.4
20260903045859 20 317 0.0 3.2 0.00 0.00 0.00 68 1013.1
20260903044846 21 355 1.6 4.8 0.00 0.00 0.00 68 1013.4
20260903044340 21 0 3.2 4.8 0.00 0.00 0.00 68 1013.4
20260903043833 21 3 1.6 6.4 0.00 0.00 0.00 68 1013.4
20260903043327 21 23 1.6 9.7 0.00 0.00 0.00 68 1013.1
20260903042821 21 43 6.4 9.7 0.00 0.00 0.00 68 1013.1
20260903042314 21 39 4.8 9.7 0.00 0.00 0.00 68 1013.1
20260903041301 21 27 6.4 6.4 0.00 0.00 0.00 67 1013.1
20260903040755 21 48 6.4 6.4 0.00 0.00 0.00 67 1013.1
20260903035235 21 19 3.2 9.7 0.00 0.00 0.00 66 1013.1
20260903034223 21 41 4.8 6.4 0.00 0.00 0.00 66 1012.8
20260903033716 21 340 1.6 9.7 0.00 0.00 0.00 66 1012.8
20260903033209 21 43 4.8 11.3 0.00 0.00 0.00 66 1012.8
20260903032702 21 44 6.4 11.3 0.00 0.00 0.00 66 1012.8
20260903031649 21 19 4.8 9.7 0.00 0.00 0.00 65 1012.4
20260903031143 21 19 4.8 9.7 0.00 0.00 0.00 67 1012.4
20260903030637 21 18 1.6 9.7 0.00 0.00 0.00 66 1012.4
20260903030130 22 11 3.2 9.7 0.00 0.00 0.00 66 1012.4
20260903025117 21 59 3.2 6.4 0.00 0.00 0.00 65 1012.8
20260903024611 21 35 3.2 6.4 0.00 0.00 0.00 64 1012.4
20260903024104 21 71 4.8 6.4 0.00 0.00 0.00 63 1012.4
20260903023557 21 51 3.2 4.8 0.00 0.00 0.00 63 1012.4
20260903020519 22 321 0.0 3.2 0.00 0.00 0.00 62 1012.4
20260903020012 22 276 0.0 4.8 0.00 0.00 0.00 62 1012.4
20260903014958 22 237 3.2 6.4 0.00 0.00 0.00 62 1012.4
20260903014452 22 260 3.2 12.9 0.00 0.00 0.00 62 1012.8
20260903013946 22 246 4.8 12.9 0.00 0.00 0.00 63 1012.8
20260903013439 22 212 9.7 12.9 0.00 0.00 0.00 63 1012.8
20260903011919 22 225 9.7 17.7 0.00 0.00 0.00 67 1012.8
20260903011413 22 219 12.9 17.7 0.00 0.00 0.00 68 1012.8
20260903010907 22 262 9.7 17.7 0.00 0.00 0.00 67 1012.8
20260903010400 22 236 8.0 17.7 0.00 0.00 0.00 67 1012.8
20260903004841 22 244 8.0 17.7 0.00 0.00 0.00 66 1012.8
20260903004335 22 223 6.4 22.5 0.00 0.00 0.00 67 1012.8
20260903003828 22 215 9.7 20.9 0.00 0.00 0.00 67 1012.8
20260903003321 22 253 12.9 20.9 0.00 0.00 0.00 67 1012.8
20260903002815 22 232 12.9 22.5 0.00 0.00 0.00 67 1012.8
20260903002308 22 268 17.7 22.5 0.00 0.00 0.00 67 1012.8
20260903001802 22 219 6.4 22.5 0.00 0.00 0.00 67 1012.8
20260903001255 22 191 16.1 22.5 0.00 0.00 0.00 65 1012.8
20260903000749 23 248 4.8 20.9 0.00 0.00 0.00 64 1013.1
20260903000241 23 257 16.1 22.5 0.00 0.00 0.00 63 1012.8
20260902235735 23 202 14.5 22.5 0.00 0.00 0.00 61 1013.1
20260902234216 23 252 11.3 16.1 0.00 0.00 0.00 61 1013.1
20260902233709 23 269 8.0 16.1 0.00 0.00 0.00 61 1013.1
20260902233203 23 257 8.0 22.5 0.00 0.00 0.00 62 1013.1
20260902232150 23 285 16.1 24.1 0.00 0.00 0.00 64 1013.1
20260902231136 23 221 17.7 20.9 0.00 0.00 0.00 64 1013.4
20260902230630 23 210 12.9 22.5 0.00 0.00 0.00 66 1013.4
20260902230124 23 220 17.7 20.9 0.00 0.00 0.00 65 1013.4
20260902225617 23 249 9.7 20.9 0.00 0.00 0.00 65 1013.4
20260902225110 23 220 9.7 20.9 0.00 0.00 0.00 63 1013.4
20260902224604 23 230 9.7 17.7 0.00 0.00 0.00 64 1013.4
20260902224058 23 252 6.4 22.5 0.00 0.00 0.00 65 1013.4
20260902223551 23 232 12.9 22.5 0.00 0.00 0.00 66 1013.4
20260902223044 23 273 11.3 22.5 0.00 0.00 0.00 66 1013.4
20260902222538 23 235 14.5 22.5 0.00 0.00 0.00 65 1013.8
20260902222031 23 233 11.3 20.9 0.00 0.00 0.00 67 1013.4
20260902221524 23 240 9.7 22.5 0.00 0.00 0.00 67 1013.8
20260902221018 23 265 9.7 22.5 0.00 0.00 0.00 65 1013.8
20260902220512 23 202 11.3 24.1 0.00 0.00 0.00 64 1013.8
20260902220006 23 246 11.3 24.1 0.00 0.00 0.00 64 1013.8
20260902214952 24 239 19.3 22.5 0.00 0.00 0.00 61 1014.1
20260902213940 24 234 17.7 24.1 0.00 0.00 0.00 61 1014.1
20260902213433 23 292 8.0 24.1 0.00 0.00 0.00 61 1014.1
20260902212926 24 176 9.7 22.5 0.00 0.00 0.00 61 1014.1
20260902211913 23 228 12.9 24.1 0.00 0.00 0.00 60 1014.1
20260902211407 24 195 14.5 22.5 0.00 0.00 0.00 59 1014.1
20260902205848 25 232 11.3 17.7 0.00 0.00 0.00 57 1014.5
20260902205340 24 256 9.7 17.7 0.00 0.00 0.00 57 1014.5
20260902203821 23 231 8.0 22.5 0.00 0.00 0.00 59 1014.5
20260902203315 24 227 11.3 17.7 0.00 0.00 0.00 56 1014.5
20260902202301 23 263 12.9 20.9 0.00 0.00 0.00 59 1014.5
20260902201250 23 196 9.7 22.5 0.00 0.00 0.00 61 1014.8
20260902200235 23 228 11.3 17.7 0.00 0.00 0.00 61 1014.8
20260902195729 23 249 11.3 17.7 0.00 0.00 0.00 61 1014.8
20260902195225 23 236 12.9 17.7 0.00 0.00 0.00 61 1014.8
20260902194715 23 250 11.3 17.7 0.00 0.00 0.00 61 1015.1
20260902194209 23 222 14.5 17.7 0.00 0.00 0.00 60 1015.1
20260902193703 23 222 11.3 16.1 0.00 0.00 0.00 61 1015.1
20260902193156 23 290 6.4 17.7 0.00 0.00 0.00 63 1015.1
20260902192650 23 250 12.9 17.7 0.00 0.00 0.00 64 1015.1
20260902192143 22 221 9.7 17.7 0.00 0.00 0.00 65 1015.1
20260902191636 23 230 17.7 17.7 0.00 0.00 0.00 65 1015.1
20260902191130 23 262 12.9 14.5 0.00 0.00 0.00 64 1015.1
20260902190624 22 230 4.8 16.1 0.00 0.00 0.00 66 1015.1
20260902190118 23 239 14.5 16.1 0.00 0.00 0.00 65 1015.1
20260902185610 23 265 6.4 16.1 0.00 0.00 0.00 64 1015.1
20260902185104 23 232 4.8 16.1 0.00 0.00 0.00 65 1015.1
20260902184558 23 185 9.7 16.1 0.00 0.00 0.00 66 1015.5
20260902184051 23 188 12.9 16.1 0.00 0.00 0.00 67 1015.5
20260902183544 23 282 8.0 16.1 0.00 0.00 0.00 67 1015.5
20260902183040 22 235 11.3 16.1 0.00 0.00 0.00 67 1015.5
20260902182531 22 262 4.8 16.1 0.00 0.00 0.00 67 1015.5
20260902182024 23 245 9.7 14.5 0.00 0.00 0.00 67 1015.5
20260902181518 22 206 6.4 12.9 0.00 0.00 0.00 67 1015.5
20260902180504 22 220 8.0 14.5 0.00 0.00 0.00 66 1015.5
20260902175958 22 271 4.8 11.3 0.00 0.00 0.00 67 1015.1
20260902175452 22 229 6.4 12.9 0.00 0.00 0.00 68 1015.1
20260902174946 22 242 8.0 12.9 0.00 0.00 0.00 67 1015.1
20260902174439 22 195 8.0 12.9 0.00 0.00 0.00 68 1015.1
20260902173932 22 203 3.2 11.3 0.00 0.00 0.00 68 1015.5
20260902173426 22 235 4.8 11.3 0.00 0.00 0.00 68 1015.1
20260902172919 23 211 9.7 11.3 0.00 0.00 0.00 67 1015.5
20260902171907 23 20 1.6 6.4 0.00 0.00 0.00 63 1015.5
20260902171400 23 245 1.6 9.7 0.00 0.00 0.00 62 1015.1
20260902170853 23 43 1.6 9.7 0.00 0.00 0.00 64 1015.1
20260902165841 22 173 0.0 11.3 0.00 0.00 0.00 68 1015.1
20260902164827 22 256 3.2 12.9 0.00 0.00 0.00 68 1015.1
20260902163814 22 169 4.8 11.3 0.00 0.00 0.00 68 1014.8
20260902163308 22 257 1.6 11.3 0.00 0.00 0.00 68 1015.1
20260902162801 22 182 6.4 9.7 0.00 0.00 0.00 68 1015.1
20260902162254 22 236 3.2 6.4 0.00 0.00 0.00 67 1015.1
20260902161748 22 291 0.0 4.8 0.00 0.00 0.00 69 1015.1
20260902161242 21 226 3.2 9.7 0.00 0.00 0.00 71 1015.1
20260902160735 21 156 3.2 9.7 0.00 0.00 0.00 72 1015.1
20260902160229 21 197 6.4 9.7 0.00 0.00 0.00 72 1015.1
20260902155722 21 154 1.6 6.4 0.00 0.00 0.00 71 1015.1
20260902155216 21 173 3.2 4.8 0.00 0.00 0.00 71 1015.1
20260902154709 21 231 3.2 9.7 0.00 0.00 0.00 72 1015.1
20260902154203 21 187 3.2 9.7 0.00 0.00 0.00 73 1015.1
20260902153657 21 291 0.0 4.8 0.00 0.00 0.00 74 1014.8
20260902153151 21 266 1.6 4.8 0.00 0.00 0.00 74 1014.8
20260902152643 21 234 1.6 4.8 0.00 0.00 0.00 75 1015.1
20260902152139 20 302 1.6 3.2 0.00 0.00 0.00 76 1014.8
20260902151630 20 273 0.0 3.2 0.00 0.00 0.00 77 1014.8
20260902150617 20 276 1.6 1.6 0.00 0.00 0.00 78 1015.1
20260902150111 20 341 0.0 1.6 0.00 0.00 0.00 79 1014.8
20260902145604 18 340 0.0 1.6 0.00 0.00 0.00 81 1014.8
20260902145059 18 348 1.6 3.2 0.00 0.00 0.00 83 1015.1
20260902144045 17 334 1.6 3.2 0.00 0.00 0.00 85 1014.8
20260902143539 17 328 0.0 3.2 0.00 0.00 0.00 86 1014.8
20260902143031 17 342 1.6 4.8 0.00 0.00 0.00 86 1014.8
20260902142525 17 337 1.6 4.8 0.00 0.00 0.00 87 1014.8
20260902142019 17 327 3.2 4.8 0.00 0.00 0.00 87 1014.8
20260902141513 16 321 1.6 4.8 0.00 0.00 0.00 88 1014.8
20260902141005 16 306 1.6 4.8 0.00 0.00 0.00 88 1014.8
20260902135953 16 335 1.6 3.2 0.00 0.00 0.00 88 1014.5
20260902135446 16 323 3.2 3.2 0.00 0.00 0.00 89 1014.5
20260902134940 16 323 1.6 3.2 0.00 0.00 0.00 88 1014.5
20260902134434 16 318 0.0 3.2 0.00 0.00 0.00 88 1014.5
20260902133926 16 329 3.2 3.2 0.00 0.00 0.00 88 1014.5
20260902133420 16 319 1.6 4.8 0.00 0.00 0.00 88 1014.5
20260902132914 16 324 1.6 4.8 0.00 0.00 0.00 88 1014.5
20260902132407 16 333 1.6 3.2 0.00 0.00 0.00 88 1014.5
20260902131901 16 333 1.6 3.2 0.00 0.00 0.00 87 1014.1
20260902131354 16 332 1.6 3.2 0.00 0.00 0.00 88 1014.1
20260902130847 16 325 1.6 3.2 0.00 0.00 0.00 87 1014.1
20260902130340 16 338 3.2 3.2 0.00 0.00 0.00 87 1014.5
20260902125834 16 327 1.6 3.2 0.00 0.00 0.00 87 1014.5
20260902125328 16 322 1.6 3.2 0.00 0.00 0.00 87 1014.1
20260902124822 16 323 1.6 3.2 0.00 0.00 0.00 87 1014.5
20260902124315 16 328 1.6 4.8 0.00 0.00 0.00 87 1014.1
20260902123808 16 338 3.2 3.2 0.00 0.00 0.00 87 1014.5
20260902123302 16 325 0.0 3.2 0.00 0.00 0.00 87 1014.1
20260902122756 16 328 0.0 3.2 0.00 0.00 0.00 87 1014.5